Time,TemperatureF,DewpointF,PressureIn,WindDirection,WindDirectionDegrees,WindSpeedMPH,WindSpeedGustMPH,Humidity,HourlyPrecipIn,Conditions,Clouds,dailyrainin,SolarRadiationWatts/m^2,SoftwareType,DateUTC
2013-01-21 00:04:00,15.0,3.0,-100.00,NNE,31,11.0,22.0,58,0.00,,,0.00,0.000000,,2013-01-21 05:04:00,
2013-01-21 00:12:00,15.0,3.0,-100.00,NNE,31,11.0,22.0,58,0.00,,,0.00,0.000000,,2013-01-21 05:12:00,
2013-01-21 00:43:00,14.0,3.0,-100.00,NNE,26,9.0,18.0,60,0.00,,,0.00,0.000000,,2013-01-21 05:43:00,
2013-01-21 00:53:00,14.0,3.0,-100.00,NNE,26,9.0,18.0,60,0.00,,,0.00,0.000000,,2013-01-21 05:53:00,
2013-01-21 01:03:00,14.0,3.0,-100.00,NNE,26,9.0,18.0,60,0.00,,,0.00,0.000000,,2013-01-21 06:03:00,
2013-01-21 01:13:00,14.0,3.0,-100.00,NNE,26,9.0,18.0,60,0.00,,,0.00,0.000000,,2013-01-21 06:13:00,
2013-01-21 01:33:00,14.0,4.0,-100.00,NNE,25,6.0,16.0,63,0.00,,,0.00,0.000000,,2013-01-21 06:33:00,
2013-01-21 01:43:00,14.0,4.0,-100.00,NNE,25,6.0,16.0,63,0.00,,,0.00,0.000000,,2013-01-21 06:43:00,
2013-01-21 01:53:00,14.0,4.0,-100.00,NNE,25,6.0,16.0,63,0.00,,,0.00,0.000000,,2013-01-21 06:53:00,
2013-01-21 02:03:00,14.0,4.0,-100.00,NNE,25,6.0,16.0,63,0.00,,,0.00,0.000000,,2013-01-21 07:03:00,
2013-01-21 02:13:00,14.0,4.0,-100.00,NNE,25,6.0,16.0,63,0.00,,,0.00,0.000000,,2013-01-21 07:13:00,
2013-01-21 02:33:00,15.0,5.0,-100.00,North,6,7.0,13.0,64,0.00,,,0.00,0.000000,,2013-01-21 07:33:00,
2013-01-21 02:43:00,15.0,5.0,-100.00,North,6,7.0,13.0,64,0.00,,,0.00,0.000000,,2013-01-21 07:43:00,
2013-01-21 02:53:00,15.0,5.0,-100.00,North,6,7.0,13.0,64,0.00,,,0.00,0.000000,,2013-01-21 07:53:00,
2013-01-21 03:03:00,15.0,5.0,-100.00,North,6,7.0,13.0,64,0.00,,,0.00,0.000000,,2013-01-21 08:03:00,
2013-01-21 03:14:00,15.0,5.0,-100.00,North,6,7.0,13.0,64,0.00,,,0.00,0.000000,,2013-01-21 08:14:00,
2013-01-21 03:43:00,15.0,5.0,-100.00,North,11,6.0,11.0,65,0.00,,,0.00,0.000000,,2013-01-21 08:43:00,
2013-01-21 03:53:00,15.0,5.0,-100.00,North,11,6.0,11.0,65,0.00,,,0.00,0.000000,,2013-01-21 08:53:00,
2013-01-21 04:03:00,15.0,5.0,-100.00,North,11,6.0,11.0,65,0.00,,,0.00,0.000000,,2013-01-21 09:03:00,
2013-01-21 04:12:00,15.0,5.0,-100.00,North,11,6.0,11.0,65,0.00,,,0.00,0.000000,,2013-01-21 09:12:00,
2013-01-21 04:43:00,14.0,5.0,-100.00,WNW,294,5.0,9.0,67,0.00,,,0.00,0.000000,,2013-01-21 09:43:00,
2013-01-21 04:53:00,14.0,5.0,-100.00,WNW,294,5.0,9.0,67,0.00,,,0.00,0.000000,,2013-01-21 09:53:00,
2013-01-21 05:03:00,14.0,5.0,-100.00,WNW,294,5.0,9.0,67,0.00,,,0.00,0.000000,,2013-01-21 10:03:00,
2013-01-21 05:12:00,14.0,5.0,-100.00,WNW,294,5.0,9.0,67,0.00,,,0.00,0.000000,,2013-01-21 10:12:00,
2013-01-21 05:43:00,13.0,6.0,-100.00,NW,311,5.0,9.0,72,0.00,,,0.00,0.000000,,2013-01-21 10:43:00,
2013-01-21 05:53:00,13.0,6.0,-100.00,NW,311,5.0,9.0,72,0.00,,,0.00,0.000000,,2013-01-21 10:53:00,
2013-01-21 06:03:00,13.0,6.0,-100.00,NW,311,5.0,9.0,72,0.00,,,0.00,0.000000,,2013-01-21 11:03:00,
2013-01-21 06:13:00,13.0,6.0,-100.00,NW,311,5.0,9.0,72,0.00,,,0.00,0.000000,,2013-01-21 11:13:00,
2013-01-21 06:43:00,14.0,7.0,-100.00,NNW,333,5.0,8.0,72,0.00,,,0.00,0.000000,,2013-01-21 11:43:00,
2013-01-21 06:53:00,14.0,7.0,-100.00,NNW,333,5.0,8.0,72,0.00,,,0.00,0.000000,,2013-01-21 11:53:00,
2013-01-21 07:03:00,14.0,7.0,-100.00,NNW,333,5.0,8.0,72,0.00,,,0.00,0.000000,,2013-01-21 12:03:00,
2013-01-21 07:12:00,14.0,7.0,-100.00,NNW,333,5.0,8.0,72,0.00,,,0.00,0.000000,,2013-01-21 12:12:00,
2013-01-21 07:43:00,14.0,6.0,-100.00,NW,313,5.0,9.0,70,0.00,,,0.00,0.000000,,2013-01-21 12:43:00,
2013-01-21 07:53:00,14.0,6.0,-100.00,NW,313,5.0,9.0,70,0.00,,,0.00,0.000000,,2013-01-21 12:53:00,
2013-01-21 08:03:00,14.0,6.0,-100.00,NW,313,5.0,9.0,70,0.00,,,0.00,0.000000,,2013-01-21 13:03:00,
2013-01-21 08:13:00,14.0,6.0,-100.00,NW,313,5.0,9.0,70,0.00,,,0.00,0.000000,,2013-01-21 13:13:00,
2013-01-21 08:43:00,14.0,7.0,-100.00,NW,308,6.0,11.0,74,0.00,,,0.00,7.000000,,2013-01-21 13:43:00,
2013-01-21 08:54:00,14.0,7.0,-100.00,NW,308,6.0,11.0,74,0.00,,,0.00,7.000000,,2013-01-21 13:54:00,
2013-01-21 09:04:00,14.0,7.0,-100.00,NW,308,6.0,11.0,74,0.00,,,0.00,7.000000,,2013-01-21 14:04:00,
2013-01-21 09:13:00,14.0,7.0,-100.00,NW,308,6.0,11.0,74,0.00,,,0.00,7.000000,,2013-01-21 14:13:00,
2013-01-21 09:33:00,16.0,9.0,-100.00,WNW,298,6.0,13.0,74,0.00,,,0.00,54.000000,,2013-01-21 14:33:00,
2013-01-21 09:43:00,16.0,9.0,-100.00,WNW,298,6.0,13.0,74,0.00,,,0.00,54.000000,,2013-01-21 14:43:00,
2013-01-21 09:54:00,16.0,9.0,-100.00,WNW,298,6.0,13.0,74,0.00,,,0.00,54.000000,,2013-01-21 14:54:00,
2013-01-21 10:03:00,16.0,9.0,-100.00,WNW,298,6.0,13.0,74,0.00,,,0.00,54.000000,,2013-01-21 15:03:00,
2013-01-21 10:13:00,16.0,9.0,-100.00,WNW,298,6.0,13.0,74,0.00,,,0.00,54.000000,,2013-01-21 15:13:00,
2013-01-21 10:33:00,16.0,10.0,-100.00,WNW,303,6.0,12.0,78,0.00,,,0.00,84.000000,,2013-01-21 15:33:00,
2013-01-21 10:43:00,16.0,10.0,-100.00,WNW,303,6.0,12.0,78,0.00,,,0.00,84.000000,,2013-01-21 15:43:00,
2013-01-21 10:53:00,16.0,10.0,-100.00,WNW,303,6.0,12.0,78,0.00,,,0.00,84.000000,,2013-01-21 15:53:00,
2013-01-21 11:04:00,16.0,10.0,-100.00,WNW,303,6.0,12.0,78,0.00,,,0.00,84.000000,,2013-01-21 16:04:00,
2013-01-21 11:13:00,16.0,10.0,-100.00,WNW,303,6.0,12.0,78,0.00,,,0.00,84.000000,,2013-01-21 16:13:00,
2013-01-21 11:33:00,17.0,11.0,-100.00,NW,324,7.0,12.0,76,0.00,,,0.00,94.000000,,2013-01-21 16:33:00,
2013-01-21 11:44:00,17.0,11.0,-100.00,NW,324,7.0,12.0,76,0.00,,,0.00,94.000000,,2013-01-21 16:44:00,
2013-01-21 11:53:00,17.0,11.0,-100.00,NW,324,7.0,12.0,76,0.00,,,0.00,94.000000,,2013-01-21 16:53:00,
2013-01-21 12:03:00,17.0,11.0,-100.00,NW,324,7.0,12.0,76,0.00,,,0.00,94.000000,,2013-01-21 17:03:00,
2013-01-21 12:13:00,17.0,11.0,-100.00,NW,324,7.0,12.0,76,0.00,,,0.00,94.000000,,2013-01-21 17:13:00,
2013-01-21 12:43:00,18.0,14.0,-100.00,NNW,327,5.0,12.0,84,0.00,,,0.00,87.000000,,2013-01-21 17:43:00,
2013-01-21 12:53:00,18.0,14.0,-100.00,NNW,327,5.0,12.0,84,0.00,,,0.00,87.000000,,2013-01-21 17:53:00,
2013-01-21 13:03:00,18.0,14.0,-100.00,NNW,327,5.0,12.0,84,0.00,,,0.00,87.000000,,2013-01-21 18:03:00,
2013-01-21 13:12:00,18.0,14.0,-100.00,NNW,327,5.0,12.0,84,0.00,,,0.00,87.000000,,2013-01-21 18:12:00,
2013-01-21 13:33:00,18.0,13.0,-100.00,NW,317,5.0,9.0,81,0.00,,,0.00,74.000000,,2013-01-21 18:33:00,
2013-01-21 13:43:00,18.0,13.0,-100.00,NW,317,5.0,9.0,81,0.00,,,0.00,74.000000,,2013-01-21 18:43:00,
2013-01-21 13:53:00,18.0,13.0,-100.00,NW,317,5.0,9.0,81,0.00,,,0.00,74.000000,,2013-01-21 18:53:00,
2013-01-21 14:03:00,18.0,13.0,-100.00,NW,317,5.0,9.0,81,0.00,,,0.00,74.000000,,2013-01-21 19:03:00,
2013-01-21 14:13:00,18.0,13.0,-100.00,NW,317,5.0,9.0,81,0.00,,,0.00,74.000000,,2013-01-21 19:13:00,
2013-01-21 14:43:00,19.0,14.0,-100.00,NNW,347,4.0,10.0,80,0.00,,,0.00,58.000000,,2013-01-21 19:43:00,
2013-01-21 14:53:00,19.0,14.0,-100.00,NNW,347,4.0,10.0,80,0.00,,,0.00,58.000000,,2013-01-21 19:53:00,
2013-01-21 15:04:00,19.0,14.0,-100.00,NNW,347,4.0,10.0,80,0.00,,,0.00,58.000000,,2013-01-21 20:04:00,
2013-01-21 15:12:00,19.0,14.0,-100.00,NNW,347,4.0,10.0,80,0.00,,,0.00,58.000000,,2013-01-21 20:12:00,
2013-01-21 15:43:00,19.0,15.0,-100.00,NNW,339,6.0,12.0,85,0.00,,,0.00,38.000000,,2013-01-21 20:43:00,
2013-01-21 15:53:00,19.0,15.0,-100.00,NNW,339,6.0,12.0,85,0.00,,,0.00,38.000000,,2013-01-21 20:53:00,
2013-01-21 16:04:00,19.0,15.0,-100.00,NNW,339,6.0,12.0,85,0.00,,,0.00,38.000000,,2013-01-21 21:04:00,
2013-01-21 16:12:00,19.0,15.0,-100.00,NNW,339,6.0,12.0,85,0.00,,,0.00,38.000000,,2013-01-21 21:12:00,
2013-01-21 16:33:00,17.0,14.0,-100.00,NNE,26,10.0,17.0,86,0.00,,,0.00,26.000000,,2013-01-21 21:33:00,
2013-01-21 16:43:00,17.0,14.0,-100.00,NNE,26,10.0,17.0,86,0.00,,,0.00,26.000000,,2013-01-21 21:43:00,
2013-01-21 16:54:00,17.0,14.0,-100.00,NNE,26,10.0,17.0,86,0.00,,,0.00,26.000000,,2013-01-21 21:54:00,
2013-01-21 17:03:00,17.0,14.0,-100.00,NNE,26,10.0,17.0,86,0.00,,,0.00,26.000000,,2013-01-21 22:03:00,
2013-01-21 17:13:00,17.0,14.0,-100.00,NNE,26,10.0,17.0,86,0.00,,,0.00,26.000000,,2013-01-21 22:13:00,
2013-01-21 17:33:00,15.0,8.0,-100.00,NNE,28,9.0,22.0,74,0.00,,,0.00,13.000000,,2013-01-21 22:33:00,
2013-01-21 17:43:00,15.0,8.0,-100.00,NNE,28,9.0,22.0,74,0.00,,,0.00,13.000000,,2013-01-21 22:43:00,
2013-01-21 17:53:00,15.0,8.0,-100.00,NNE,28,9.0,22.0,74,0.00,,,0.00,13.000000,,2013-01-21 22:53:00,
2013-01-21 18:03:00,15.0,8.0,-100.00,NNE,28,9.0,22.0,74,0.00,,,0.00,13.000000,,2013-01-21 23:03:00,
2013-01-21 18:13:00,15.0,8.0,-100.00,NNE,28,9.0,22.0,74,0.00,,,0.00,13.000000,,2013-01-21 23:13:00,
2013-01-21 18:33:00,14.0,8.0,-100.00,NNE,16,9.0,16.0,76,0.00,,,0.00,0.000000,,2013-01-21 23:33:00,
2013-01-21 18:43:00,14.0,8.0,-100.00,NNE,16,9.0,16.0,76,0.00,,,0.00,0.000000,,2013-01-21 23:43:00,
2013-01-21 18:53:00,14.0,8.0,-100.00,NNE,16,9.0,16.0,76,0.00,,,0.00,0.000000,,2013-01-21 23:53:00,
2013-01-21 19:03:00,14.0,8.0,-100.00,NNE,16,9.0,16.0,76,0.00,,,0.00,0.000000,,2013-01-22 00:03:00,
2013-01-21 19:12:00,14.0,8.0,-100.00,NNE,16,9.0,16.0,76,0.00,,,0.00,0.000000,,2013-01-22 00:12:00,
2013-01-21 19:33:00,13.0,8.0,-100.00,NNE,17,11.0,20.0,79,0.00,,,0.00,0.000000,,2013-01-22 00:33:00,
2013-01-21 19:43:00,13.0,8.0,-100.00,NNE,17,11.0,20.0,79,0.00,,,0.00,0.000000,,2013-01-22 00:43:00,
2013-01-21 19:53:00,13.0,8.0,-100.00,NNE,17,11.0,20.0,79,0.00,,,0.00,0.000000,,2013-01-22 00:53:00,
2013-01-21 20:02:00,13.0,8.0,-100.00,NNE,17,11.0,20.0,79,0.00,,,0.00,0.000000,,2013-01-22 01:02:00,
2013-01-21 20:12:00,13.0,8.0,-100.00,NNE,17,11.0,20.0,79,0.00,,,0.00,0.000000,,2013-01-22 01:12:00,
2013-01-21 20:43:00,13.0,7.0,-100.00,NNE,16,10.0,19.0,75,0.00,,,0.00,0.000000,,2013-01-22 01:43:00,
2013-01-21 20:53:00,13.0,7.0,-100.00,NNE,16,10.0,19.0,75,0.00,,,0.00,0.000000,,2013-01-22 01:53:00,
2013-01-21 21:03:00,13.0,7.0,-100.00,NNE,16,10.0,19.0,75,0.00,,,0.00,0.000000,,2013-01-22 02:03:00,
2013-01-21 21:12:00,13.0,7.0,-100.00,NNE,16,10.0,19.0,75,0.00,,,0.00,0.000000,,2013-01-22 02:12:00,
2013-01-21 21:33:00,11.0,4.0,-100.00,NNE,21,12.0,26.0,74,0.00,,,0.00,0.000000,,2013-01-22 02:33:00,
2013-01-21 21:43:00,11.0,4.0,-100.00,NNE,21,12.0,26.0,74,0.00,,,0.00,0.000000,,2013-01-22 02:43:00,
2013-01-21 21:53:00,11.0,4.0,-100.00,NNE,21,12.0,26.0,74,0.00,,,0.00,0.000000,,2013-01-22 02:53:00,
2013-01-21 22:03:00,11.0,4.0,-100.00,NNE,21,12.0,26.0,74,0.00,,,0.00,0.000000,,2013-01-22 03:03:00,
2013-01-21 22:12:00,11.0,4.0,-100.00,NNE,21,12.0,26.0,74,0.00,,,0.00,0.000000,,2013-01-22 03:12:00,
2013-01-21 22:43:00,10.0,2.0,-100.00,North,11,10.0,29.0,70,0.00,,,0.00,0.000000,,2013-01-22 03:43:00,
2013-01-21 22:53:00,10.0,2.0,-100.00,North,11,10.0,29.0,70,0.00,,,0.00,0.000000,,2013-01-22 03:53:00,
2013-01-21 23:03:00,10.0,2.0,-100.00,North,11,10.0,29.0,70,0.00,,,0.00,0.000000,,2013-01-22 04:03:00,
2013-01-21 23:12:00,10.0,2.0,-100.00,North,11,10.0,29.0,70,0.00,,,0.00,0.000000,,2013-01-22 04:12:00,
2013-01-21 23:33:00,8.0,-1.0,-100.00,North,3,13.0,24.0,67,0.00,,,0.00,0.000000,,2013-01-22 04:33:00,
2013-01-21 23:43:00,8.0,-1.0,-100.00,North,3,13.0,24.0,67,0.00,,,0.00,0.000000,,2013-01-22 04:43:00,
2013-01-21 23:53:00,8.0,-1.0,-100.00,North,3,13.0,24.0,67,0.00,,,0.00,0.000000,,2013-01-22 04:53:00,